Regional Weather Roundup
Issued by NWS

Home | Current Version | Previous Version | Graphics & Text | Print | Product List | Glossary On
Versions: 1 2 3 4 5 6 7 8 9 10 11 12 13 14 15 16 17 18 19 20 21 22 23 24 25 26 27 28 29 30 31 32 33 34 35 36 37 38 39 40 41 42 43 44 45 46 47 48 49
000
ASUS45 KTFX 040110
RWRMT
MONTANA REGIONAL WEATHER ROUNDUP
NATIONAL WEATHER SERVICE GREAT FALLS MT
700 PM MDT TUE MAY 03 2016

NOTE: "FAIR" INDICATES FEW OR NO CLOUDS BELOW 12000 FEET WITH NO
SIGNIFICANT WEATHER AND/OR OBSTRUCTIONS TO VISIBILITY.

MTZ001>007-043-040200-
WEST OF THE DIVIDE

CITY           SKY/WX    TMP DP  RH WIND       PRES   REMARKS
KALISPELL      SUNNY     77  42  28 S8        29.99F
MISSOULA       SUNNY     81  32  17 NW3       30.00F
BUTTE          SUNNY     72  20  14 E12       30.12F
MULLAN PASS    SUNNY     64  25  22 VRB5      30.15F
$$

MTZ008-052>055-040200-
SOUTHWEST MONTANA

CITY           SKY/WX    TMP DP  RH WIND       PRES   REMARKS
BOZEMAN        SUNNY     76  25  15 CALM      30.09F
DILLON         SUNNY     74  20  13 CALM      30.10F
ENNIS          SUNNY     72  28  20 CALM      30.18S
$$

MTZ009-010-012-014-046-048-049-054-040200-
EAST SLOPES AND CENTRAL MONTANA

CITY           SKY/WX    TMP DP  RH WIND       PRES   REMARKS
CUT BANK         N/A     75  31  19 W12       30.02F
GREAT FALLS    SUNNY     76  36  23 SE7       30.03F
MALMSTROM AFB  SUNNY     76  36  23 E5        30.03F
HELENA         SUNNY     78  33  19 E12       30.05F
$$

MTZ011-013-016-021-045-047-050-051-040200-
NORTH CENTRAL MONTANA

CITY           SKY/WX    TMP DP  RH WIND       PRES   REMARKS
HAVRE          SUNNY     80  45  28 NE3       29.99F
LEWISTOWN      SUNNY     74  40  29 E10       30.08F
N BAR RANCH      N/A     70  36  28 E13       30.13F
$$

MTZ017>020-022>027-061-062-040200-
NORTHEAST MONTANA

CITY           SKY/WX    TMP DP  RH WIND       PRES   REMARKS
GLASGOW        SUNNY     77  40  26 VRB5      30.03S
JORDAN           N/A     76  36  23 E5        30.05F
SIDNEY         SUNNY     75  39  27 NE8       30.03S
WOLF POINT     SUNNY     79  45  29 SW3       30.02F
$$

MTZ028>42-056>058-040200-
SOUTHCENTRAL AND SOUTHEAST MONTANA

CITY           SKY/WX    TMP DP  RH WIND       PRES   REMARKS
BAKER          SUNNY     74  36  25 NE10      30.08S
BILLINGS       SUNNY     74  34  23 E9        30.09F
LIVINGSTON     SUNNY     75  30  19 N7        30.09F
MILES CITY     SUNNY     77  35  21 W6        30.05F
$$

REGIONAL REPORTS...DAKOTAS

CITY           SKY/WX    TMP DP  RH WIND       PRES   REMARKS
WILLISTON      SUNNY     77  39  25 NE8       30.03S
MINOT          CLEAR     73  24  16 N14       30.01S
DICKINSON      CLEAR     69  39  33 NE12      30.03R
BEACH            N/A     72  37  28 N8        30.09S
CROSBY           N/A     73  37  27 NE9       30.05F
TIOGA            N/A     72  36  26 N13       30.09S
WATFORD CITY     N/A     73  39  29 NE12      30.04S
BISMARCK       CLEAR     70  32  24 N14       29.99R
GRAND FORKS    CLEAR     60  33  36 N20       29.94R
FARGO          CLEAR     64  26  23 N25G33    29.90R
BUFFALO SD       N/A     73  37  27 N10       30.01S
RAPID CITY     CLEAR     69  39  33 N12       30.07S
$$

REGIONAL REPORTS...WYOMING/IDAHO/WASHINGTON

CITY           SKY/WX    TMP DP  RH WIND       PRES   REMARKS
GILLETTE       SUNNY     68  38  33 N8        30.14F
SHERIDAN       SUNNY     70  39  32 S3        30.13S
BUFFALO WY     SUNNY     67  35  30 N7        30.19S
CODY           SUNNY     70  28  21 E6        30.14S
YELLOWSTONE LA   N/A     53  22  29 CALM      30.31F
IDAHO FALLS    SUNNY     72  22  15 W5        30.16F
SALMON         SUNNY     77  27  15 N3        30.00F
BOISE          SUNNY     79  29  16 SE9       30.01F
SPOKANE        PTSUNNY   80  31  16 S7        29.97F
$$

REGIONAL REPORTS...ALBERTA

CITY           SKY/WX    TMP DP  RH WIND       PRES   REMARKS
EDMONTON       SUNNY     82  34  17 S8        29.83F
CALGARY        MOSUNNY   81  30  16 S13G18    29.91F
LETHBRIDGE     SUNNY     81  27  13 SW20G25   29.94F
MEDICINE HAT   SUNNY     81  39  22 S12       29.94F
WATERTON GATE    N/A     73  34  23 SW9         N/A
CARDSTON         N/A     77  28  16 W7          N/A
MILK RIVER       N/A     77  39  25 S6          N/A
ONEFOUR          N/A     75  37  25 SE8         N/A
$$

REGIONAL REPORTS...SASKATCHEWAN

CITY           SKY/WX    TMP DP  RH WIND       PRES   REMARKS
SWIFT CURRENT  SUNNY     77  37  24 W8        29.99F
REGINA         MOSUNNY   75  39  27 E9        30.00F
SASKATOON      CLOUDY    81  37  21 S8        29.95F
CYPRESS HILLS    N/A     70  34  26 S9          N/A
VAL MARIE        N/A     77  36  22 S7          N/A
ROCKGLEN         N/A     75  36  23 SE1         N/A
ASSINIBOIA       N/A     86  30  13 SW9         N/A
$$



USA.gov is the U.S. government's official web portal to all federal, state and local government web resources and services.